DELTA 1 DEB, 3126

Orbit data source: Space-Track

DELTA 1 DEB, 3126 is space debris in LEO originally from a launch on Thu, 11 Jan 1968 UTC launched from the Air Force Western Test Range (AFWTR). Debris objects in space refer to the collection of defunct objects orbiting the Earth. Examples of debris include non-operational satellites, rocket bodies, and fragments generated from explosions, collisions, or faulty payload assembly.

Loading next visibility...
Identifier
3126, 1968-002C
Orbit
LEO
Country
Flag of USUS
Related business
Manufacturer
Unknown
Mission
Spacecraft
Bus & Motor
Unknown
Mass
Unknown
Launch date (UTC)
1968-01-11 (58 years ago)
Launch vehicle
Unknown
Launch site
Air Force Western Test Range (AFWTR)
Object type
Payload
Rocket body
Debris
Shape & HBR
Unknown shape, 0.1 m
Radar Cross Section
Medium (>0.1 m² and <1 m²)

Expand to show TLE details & history
Last TLE update: 2 days ago

TLE from 2 days ago
0 DELTA 1 DEB
1 03126U 68002C   26174.34004124 -.00000029  00000-0  16034-3 0  9995
2 03126 106.0603 126.6230 0321263 151.0688   3.4927 12.82468753735079
Epoch: 2026-06-23T08:09Z
TLE epoch observation values (Epoch: 2026-06-23T08:09:39.563Z)
Latitude
24.18762°
Longitude
-79.91398°
Altitude
1,086.791 km
Speed
7.427 km/s
True Right ascension
20h 56m 03s
True Declination
24° 03' 54"
Sunlit
Object was in daylight at epoch
Visualization orbit readout
Latitude
Unknown
Longitude
Unknown
Altitude
Unknown
Speed
Unknown
Apparent Right ascension
Unknown
Apparent Declination
Unknown
Sunlit
N/A
Visualization observer readout
Local Sidereal Time
09:58:28
Azimuth
Unknown
Elevation
Unknown
Doppler factor
Unknown
Orbital elements
Apogee altitude
1,576.975 km
Perigee altitude
1,081.748 km
Semi-major axis
7,707.498 km
Eccentricity
0.03213
Inclination
106.0603°
RAAN
126.623°
Arg. of periapsis
151.0688°
True anomaly
3.72632°
Mean anomaly
3.4927°
Eccentric anomaly
3.60855°
Mean motion
3.20755 °/min
Orbital period
112.24 mins
BSTAR
0.00016034
Loading maneuver chart data...
Computing Atmospheric mass density...
Loading historical data...
Loading historical data...
Loading historical data...
Loading historical data...
Loading historical data...
Loading historical data...
Loading historical data...

Documentation

Showing up to 5 results
|